Flag for Germany Weather past 2 weeks in Karlsruhe, Baden-Württemberg, Germany

Now
43 °F

Partly sunny.


Feels Like: 37 °F
Forecast: 38 / 56 °F
Wind: 9 mph from South

Location: Karlsruhe - Baden Wurttemberg

Current Time: Mar 27, 2015 at 6:37:13 AM

Latest Report: Mar 27, 2015 at 6:20 AM


Visibility: N/A

Pressure: 30.01 "Hg

Humidity: 87%

Dew point: 39 °F

Location of KarlsruheLocation

Historic Weather in Karlsruhe — Graph

°F

Karlsruhe temperature yesterday

Maximum temperature yesterday: 48 °F (at 1:50 PM)
Minimum temperature yesterday: 41 °F (at 5:20 AM)
Average temperature yesterday: 45 °F

Past Weeks' High & Low Weather Summary

 TemperatureHumidityPressure
High64 °F (Mar 18, 2:50 PM)100% (Mar 18, 7:50 AM)30.42 "Hg (Mar 18, 7:50 AM)
Low28 °F (Mar 12, 5:20 AM)30% (Mar 12, 3:20 PM)29.62 "Hg (Mar 25, 5:20 AM)
Average46 °F65%30.08 "Hg
* Reported Mar 12 5:20 AM — Mar 27 5:20 AM, Karlsruhe, Weather by CustomWeather, © 2015

Note: Actual official high and low records may vary slightly from our data, if they occured in-between our weather recording intervals... More about our weather records

Advertising

Karlsruhe weather history for previous 24 hours

 ConditionsComfort  
Time TempWeatherWind HumidityBarometerVisibility
5:20 AM
Fri, Mar 27
43 °FPassing clouds.7 mph87%29.98 "HgN/A
4:50 AM43 °FPassing clouds.12 mph87%29.98 "HgN/A
3:50 AM43 °FPassing clouds.9 mph87%29.95 "HgN/A
2:50 AM43 °FPassing clouds.6 mph87%29.95 "Hg5 mi
11:50 PM
Thu, Mar 26
43 °FLight rain. Passing clouds.13 mph87%29.92 "Hg5 mi
11:20 PM43 °FRain. Passing clouds.12 mph87%29.89 "Hg4 mi
10:50 PM43 °FRain. Passing clouds.12 mph87%29.89 "Hg4 mi
10:20 PM43 °FRain. Passing clouds.10 mph87%29.89 "Hg4 mi
9:50 PM43 °FLight rain. Passing clouds.10 mph81%29.89 "Hg6 mi
9:20 PM43 °FLight rain. Passing clouds.9 mph81%29.89 "HgN/A
8:50 PM43 °FScattered showers. Passing clouds.8 mph81%29.86 "HgN/A
8:20 PM43 °FLight rain. Passing clouds.9 mph81%29.86 "Hg5 mi
7:50 PM43 °FLight rain. Passing clouds.9 mph81%29.86 "Hg5 mi
7:20 PM45 °FLight rain. Passing clouds.10 mph76%29.86 "Hg4 mi
6:53 PM46 °FLight rain. Passing clouds.14 mph71%29.83 "Hg6 mi
6:20 PM48 °FScattered showers. Broken clouds.13 mph66%29.80 "HgN/A
5:50 PM48 °FPartly sunny.14 mph62%29.80 "HgN/A
5:20 PM48 °FSunny.14 mph62%29.80 "Hg10 mi
4:50 PM48 °FSunny.14 mph58%29.80 "Hg10 mi
4:20 PM48 °FPartly sunny.13 mph58%29.80 "HgN/A
3:50 PM48 °FBroken clouds.12 mph58%29.80 "HgN/A
3:20 PM48 °FBroken clouds.12 mph58%29.83 "HgN/A
2:50 PM48 °FBroken clouds.9 mph58%29.83 "HgN/A
2:20 PM48 °FBroken clouds.7 mph62%29.83 "HgN/A
1:50 PM48 °FBroken clouds.8 mph58%29.83 "Hg6 mi
1:20 PM46 °FBroken clouds.8 mph66%29.83 "HgN/A
12:50 PM46 °FPartly sunny.8 mph62%29.83 "HgN/A
12:20 PM46 °FPartly sunny.10 mph62%29.86 "HgN/A
11:50 AM46 °FBroken clouds.9 mph66%29.86 "Hg5 mi
11:20 AM45 °FBroken clouds.9 mph76%29.86 "HgN/A
10:50 AM45 °FBroken clouds.9 mph76%29.86 "Hg5 mi
10:20 AM45 °FBroken clouds.8 mph76%29.86 "Hg5 mi
9:50 AM43 °FBroken clouds.7 mph81%29.86 "Hg5 mi
9:20 AM43 °FBroken clouds.7 mph81%29.86 "Hg5 mi
8:50 AM43 °FPartly sunny.8 mph81%29.86 "Hg5 mi
8:20 AM43 °FPartly sunny.7 mph81%29.83 "Hg4 mi
7:50 AM43 °FBroken clouds.7 mph81%29.83 "Hg4 mi
7:20 AM43 °FPartly sunny.7 mph81%29.83 "Hg4 mi
6:50 AM43 °FPartly sunny.6 mph81%29.83 "Hg4 mi
6:20 AM41 °FPartly sunny.6 mph93%29.80 "Hg4 mi
Weather by CustomWeather, © 2015

See weather overviewHow to use our weather pages